Retour au catalogue

OPS 0856 DEB

LostPO
NORAD 25827·DEBRIS·🇺🇸 United States

Lancé Aug 19, 1966 depuis Vandenberg Space Force Base

Loading…

Prochains Passages (prochaines 24 heures)

TLE

PériméSource: Space-Track

Époque: Sep 27, 2013, 15:41 UTC

1 25827U 66077U   13270.65361210 +.00000006 +00000-0 +10000-3 0  9997
2 25827 089.5855 160.2027 1152442 072.8835 246.2358 08.75713636518871

Suivez OPS 0856 DEB en temps réel avec AllMySat

Download on the App Store